Location: Sternwarte_Laufen
(47.9344°N, 12.9346°E)
Time: 08:02:48
(UTC+02:00)

ISS - Pass Details

Date: 22 May 2018
Orbit: 402 x 407 km, 51.6° (Epoch: 23 May)

Event Time Altitude Azimuth Distance (km) Brightness Sun altitude
Rises 21:23:12 0° 211° (SSW) 2,309 -0.1 -5.5°
Reaches altitude 10° 21:25:30 10° 197° (SSW) 1,453 -1.2 -5.8°
Maximum altitude 21:28:11 24° 141° (SE) 888 -2.7 -6.2°
Drops below altitude 10° 21:30:53 10° 86° (E) 1,459 -1.4 -6.5°
Sets 21:33:12 0° 72° (ENE) 2,321 -0.3 -6.8°
